Time,TemperatureF,DewpointF,PressureIn,WindDirection,WindDirectionDegrees,WindSpeedMPH,WindSpeedGustMPH,Humidity,HourlyPrecipIn,Conditions,Clouds,dailyrainin,SolarRadiationWatts/m^2,SoftwareType,DateUTC
2013-03-18 00:00:00,27.7,14.8,30.29,North,355,0.0,0.0,58,0.00,,,0.00,0,Wunderground v.1.15,2013-03-18 04:00:00,
2013-03-18 00:02:00,27.6,14.7,30.29,North,355,0.0,0.0,58,0.00,,,0.00,0,Wunderground v.1.15,2013-03-18 04:02:00,
2013-03-18 00:05:00,27.5,14.6,30.29,North,355,0.0,0.0,58,0.00,,,0.00,0,Wunderground v.1.15,2013-03-18 04:05:00,
2013-03-18 00:07:00,27.6,14.7,30.29,North,355,0.0,0.0,58,0.00,,,0.00,0,Wunderground v.1.15,2013-03-18 04:07:00,
2013-03-18 00:12:00,27.7,15.2,30.28,North,355,0.0,0.0,59,0.00,,,0.00,0,Wunderground v.1.15,2013-03-18 04:12:00,
2013-03-18 00:18:00,27.5,15.0,30.29,North,355,0.0,0.0,59,0.00,,,0.00,0,Wunderground v.1.15,2013-03-18 04:18:00,
2013-03-18 00:24:00,27.4,14.9,30.29,North,355,0.0,0.0,59,0.00,,,0.00,0,Wunderground v.1.15,2013-03-18 04:24:00,
2013-03-18 00:29:00,27.5,15.0,30.29,North,355,0.0,0.0,59,0.00,,,0.00,0,Wunderground v.1.15,2013-03-18 04:29:00,
2013-03-18 00:35:00,27.8,15.3,30.29,North,355,0.0,1.0,59,0.00,,,0.00,0,Wunderground v.1.15,2013-03-18 04:35:00,
2013-03-18 00:41:00,28.1,15.6,30.28,North,355,1.0,1.0,59,0.00,,,0.00,0,Wunderground v.1.15,2013-03-18 04:41:00,
2013-03-18 00:47:00,28.8,16.3,30.29,North,355,0.0,2.0,59,0.00,,,0.00,0,Wunderground v.1.15,2013-03-18 04:47:00,
2013-03-18 00:52:00,29.3,16.7,30.29,North,355,0.0,3.0,59,0.00,,,0.00,0,Wunderground v.1.15,2013-03-18 04:52:00,
2013-03-18 00:58:00,29.9,16.5,30.29,North,355,1.0,3.0,57,0.00,,,0.00,0,Wunderground v.1.15,2013-03-18 04:58:00,
2013-03-18 01:04:00,30.3,16.5,30.29,North,355,0.0,3.0,56,0.00,,,0.00,0,Wunderground v.1.15,2013-03-18 05:04:00,
2013-03-18 01:09:00,30.4,16.1,30.29,North,355,2.0,3.0,55,0.00,,,0.00,0,Wunderground v.1.15,2013-03-18 05:09:00,
2013-03-18 01:14:00,30.6,15.9,30.29,North,355,1.0,3.0,54,0.00,,,0.00,0,Wunderground v.1.15,2013-03-18 05:14:00,
2013-03-18 01:20:00,30.6,15.5,30.29,North,355,2.0,2.0,53,0.00,,,0.00,0,Wunderground v.1.15,2013-03-18 05:20:00,
2013-03-18 01:25:00,30.6,15.5,30.29,North,355,2.0,2.0,53,0.00,,,0.00,0,Wunderground v.1.15,2013-03-18 05:25:00,
2013-03-18 01:30:00,30.7,15.1,30.29,North,355,0.0,0.0,52,0.00,,,0.00,0,Wunderground v.1.15,2013-03-18 05:30:00,
2013-03-18 01:36:00,30.7,15.1,30.29,North,355,3.0,3.0,52,0.00,,,0.00,0,Wunderground v.1.15,2013-03-18 05:36:00,
2013-03-18 01:42:00,30.6,14.6,30.30,North,355,1.0,1.0,51,0.00,,,0.00,0,Wunderground v.1.15,2013-03-18 05:42:00,
2013-03-18 01:47:00,30.5,14.5,30.29,North,355,0.0,2.0,51,0.00,,,0.00,0,Wunderground v.1.15,2013-03-18 05:47:00,
2013-03-18 01:52:00,30.6,14.6,30.30,North,355,0.0,1.0,51,0.00,,,0.00,0,Wunderground v.1.15,2013-03-18 05:52:00,
2013-03-18 01:58:00,30.5,14.5,30.29,North,355,0.0,3.0,51,0.00,,,0.00,0,Wunderground v.1.15,2013-03-18 05:58:00,
2013-03-18 02:04:00,30.5,14.5,30.30,North,355,0.0,2.0,51,0.00,,,0.00,0,Wunderground v.1.15,2013-03-18 06:04:00,
2013-03-18 02:09:00,30.4,14.4,30.30,North,355,1.0,2.0,51,0.00,,,0.00,0,Wunderground v.1.15,2013-03-18 06:09:00,
2013-03-18 02:14:00,30.0,14.0,30.30,North,355,1.0,1.0,51,0.00,,,0.00,0,Wunderground v.1.15,2013-03-18 06:14:00,
2013-03-18 02:19:00,29.9,13.9,30.30,North,355,1.0,2.0,51,0.00,,,0.00,0,Wunderground v.1.15,2013-03-18 06:19:00,
2013-03-18 02:24:00,29.6,14.1,30.30,North,355,0.0,2.0,52,0.00,,,0.00,0,Wunderground v.1.15,2013-03-18 06:24:00,
2013-03-18 02:29:00,29.3,13.8,30.31,North,355,0.0,2.0,52,0.00,,,0.00,0,Wunderground v.1.15,2013-03-18 06:29:00,
2013-03-18 02:34:00,29.4,14.4,30.31,North,355,0.0,1.0,53,0.00,,,0.00,0,Wunderground v.1.15,2013-03-18 06:34:00,
2013-03-18 02:39:00,29.2,14.2,30.31,North,355,0.0,1.0,53,0.00,,,0.00,0,Wunderground v.1.15,2013-03-18 06:39:00,
2013-03-18 02:44:00,28.9,13.9,30.31,North,355,0.0,0.0,53,0.00,,,0.00,0,Wunderground v.1.15,2013-03-18 06:44:00,
2013-03-18 02:49:00,28.5,13.9,30.31,North,355,0.0,0.0,54,0.00,,,0.00,0,Wunderground v.1.15,2013-03-18 06:49:00,
2013-03-18 02:54:00,28.3,13.8,30.32,North,355,0.0,0.0,54,0.00,,,0.00,0,Wunderground v.1.15,2013-03-18 06:54:00,
2013-03-18 02:59:00,27.9,13.8,30.32,North,355,0.0,0.0,55,0.00,,,0.00,0,Wunderground v.1.15,2013-03-18 06:59:00,
2013-03-18 03:04:00,27.7,13.6,30.32,North,355,0.0,0.0,55,0.00,,,0.00,0,Wunderground v.1.15,2013-03-18 07:04:00,
2013-03-18 03:09:00,27.6,13.9,30.32,North,355,0.0,0.0,56,0.00,,,0.00,0,Wunderground v.1.15,2013-03-18 07:09:00,
2013-03-18 03:14:00,27.3,13.7,30.32,North,355,0.0,0.0,56,0.00,,,0.00,0,Wunderground v.1.15,2013-03-18 07:14:00,
2013-03-18 03:19:00,27.3,13.7,30.33,North,355,0.0,0.0,56,0.00,,,0.00,0,Wunderground v.1.15,2013-03-18 07:19:00,
2013-03-18 03:24:00,27.0,13.8,30.33,North,355,0.0,0.0,57,0.00,,,0.00,0,Wunderground v.1.15,2013-03-18 07:24:00,
2013-03-18 03:29:00,27.0,13.8,30.32,North,355,0.0,0.0,57,0.00,,,0.00,0,Wunderground v.1.15,2013-03-18 07:29:00,
2013-03-18 03:34:00,26.8,13.6,30.32,North,355,0.0,0.0,57,0.00,,,0.00,0,Wunderground v.1.15,2013-03-18 07:34:00,
2013-03-18 03:39:00,27.2,14.0,30.33,North,355,0.0,2.0,57,0.00,,,0.00,0,Wunderground v.1.15,2013-03-18 07:39:00,
2013-03-18 03:44:00,27.4,14.5,30.33,North,355,1.0,2.0,58,0.00,,,0.00,0,Wunderground v.1.15,2013-03-18 07:44:00,
2013-03-18 03:49:00,27.9,14.6,30.33,North,355,0.0,3.0,57,0.00,,,0.00,0,Wunderground v.1.15,2013-03-18 07:49:00,
2013-03-18 03:54:00,28.5,15.2,30.33,North,355,1.0,4.0,57,0.00,,,0.00,0,Wunderground v.1.15,2013-03-18 07:54:00,
2013-03-18 03:59:00,29.1,15.3,30.33,NE,53,0.0,6.0,56,0.00,,,0.00,0,Wunderground v.1.15,2013-03-18 07:59:00,
2013-03-18 04:04:00,30.0,15.8,30.33,NE,36,3.0,5.0,55,0.00,,,0.00,0,Wunderground v.1.15,2013-03-18 08:04:00,
2013-03-18 04:09:00,30.5,15.4,30.34,NE,41,2.0,8.0,53,0.00,,,0.00,0,Wunderground v.1.15,2013-03-18 08:09:00,
2013-03-18 04:14:00,30.9,14.9,30.34,NE,40,2.0,5.0,51,0.00,,,0.00,0,Wunderground v.1.15,2013-03-18 08:14:00,
2013-03-18 04:19:00,31.3,14.8,30.34,NE,37,3.0,5.0,50,0.00,,,0.00,0,Wunderground v.1.15,2013-03-18 08:19:00,
2013-03-18 04:24:00,31.7,14.2,30.34,NNE,12,1.0,8.0,48,0.00,,,0.00,0,Wunderground v.1.15,2013-03-18 08:24:00,
2013-03-18 04:29:00,31.9,13.9,30.34,ENE,57,1.0,8.0,47,0.00,,,0.00,0,Wunderground v.1.15,2013-03-18 08:29:00,
2013-03-18 04:34:00,32.1,13.6,30.34,NE,51,2.0,9.0,46,0.00,,,0.00,0,Wunderground v.1.15,2013-03-18 08:34:00,
2013-03-18 04:39:00,32.1,13.1,30.34,North,1,1.0,9.0,45,0.00,,,0.00,0,Wunderground v.1.15,2013-03-18 08:39:00,
2013-03-18 04:44:00,32.1,12.6,30.34,NNE,32,2.0,8.0,44,0.00,,,0.00,0,Wunderground v.1.15,2013-03-18 08:44:00,
2013-03-18 04:49:00,32.2,12.7,30.34,ENE,63,0.0,8.0,44,0.00,,,0.00,0,Wunderground v.1.15,2013-03-18 08:49:00,
2013-03-18 04:54:00,32.2,12.2,30.35,NE,43,3.0,7.0,43,0.00,,,0.00,0,Wunderground v.1.15,2013-03-18 08:54:00,
2013-03-18 04:59:00,32.1,12.1,30.34,ENE,66,3.0,7.0,43,0.00,,,0.00,0,Wunderground v.1.15,2013-03-18 08:59:00,
2013-03-18 05:04:00,32.2,12.2,30.35,NE,44,4.0,5.0,43,0.00,,,0.00,0,Wunderground v.1.15,2013-03-18 09:04:00,
2013-03-18 05:09:00,32.0,12.0,30.35,NE,39,0.0,8.0,43,0.00,,,0.00,0,Wunderground v.1.15,2013-03-18 09:09:00,
2013-03-18 05:14:00,31.9,11.9,30.34,NE,35,8.0,8.0,43,0.00,,,0.00,0,Wunderground v.1.15,2013-03-18 09:14:00,
2013-03-18 05:19:00,32.0,12.5,30.34,NE,44,1.0,8.0,44,0.00,,,0.00,0,Wunderground v.1.15,2013-03-18 09:19:00,
2013-03-18 05:24:00,31.9,12.4,30.35,NE,42,2.0,4.0,44,0.00,,,0.00,0,Wunderground v.1.15,2013-03-18 09:24:00,
2013-03-18 05:29:00,31.6,12.7,30.34,North,359,2.0,10.0,45,0.00,,,0.00,0,Wunderground v.1.15,2013-03-18 09:29:00,
2013-03-18 05:34:00,31.6,12.7,30.35,NE,48,7.0,10.0,45,0.00,,,0.00,0,Wunderground v.1.15,2013-03-18 09:34:00,
2013-03-18 05:39:00,31.7,13.3,30.35,NE,38,5.0,10.0,46,0.00,,,0.00,0,Wunderground v.1.15,2013-03-18 09:39:00,
2013-03-18 05:44:00,31.5,13.1,30.35,North,0,3.0,7.0,46,0.00,,,0.00,0,Wunderground v.1.15,2013-03-18 09:44:00,
2013-03-18 05:49:00,31.3,12.9,30.35,NE,40,1.0,9.0,46,0.00,,,0.00,0,Wunderground v.1.15,2013-03-18 09:49:00,
2013-03-18 05:54:00,31.3,12.9,30.35,NE,43,2.0,6.0,46,0.00,,,0.00,0,Wunderground v.1.15,2013-03-18 09:54:00,
2013-03-18 05:59:00,31.2,12.8,30.35,ENE,59,1.0,10.0,46,0.00,,,0.00,0,Wunderground v.1.15,2013-03-18 09:59:00,
2013-03-18 06:04:00,31.3,12.9,30.35,NNE,13,3.0,6.0,46,0.00,,,0.00,0,Wunderground v.1.15,2013-03-18 10:04:00,
2013-03-18 06:09:00,31.1,13.2,30.36,ENE,62,6.0,9.0,47,0.00,,,0.00,0,Wunderground v.1.15,2013-03-18 10:09:00,
2013-03-18 06:14:00,31.2,13.3,30.36,NNE,32,3.0,11.0,47,0.00,,,0.00,0,Wunderground v.1.15,2013-03-18 10:14:00,
2013-03-18 06:19:00,31.2,13.3,30.36,NE,46,4.0,12.0,47,0.00,,,0.00,0,Wunderground v.1.15,2013-03-18 10:19:00,
2013-03-18 06:24:00,31.3,13.4,30.36,NE,42,1.0,7.0,47,0.00,,,0.00,0,Wunderground v.1.15,2013-03-18 10:24:00,
2013-03-18 06:29:00,31.4,13.5,30.36,NNE,25,2.0,9.0,47,0.00,,,0.00,0,Wunderground v.1.15,2013-03-18 10:29:00,
2013-03-18 06:34:00,31.4,13.9,30.36,NE,37,5.0,7.0,48,0.00,,,0.00,0,Wunderground v.1.15,2013-03-18 10:34:00,
2013-03-18 06:40:00,31.5,14.0,30.36,ENE,57,4.0,4.0,48,0.00,,,0.00,0,Wunderground v.1.15,2013-03-18 10:40:00,
2013-03-18 06:45:00,31.5,14.0,30.37,North,3,4.0,7.0,48,0.00,,,0.00,0,Wunderground v.1.15,2013-03-18 10:45:00,
2013-03-18 06:50:00,31.6,14.1,30.37,NE,39,5.0,5.0,48,0.00,,,0.00,0,Wunderground v.1.15,2013-03-18 10:50:00,
2013-03-18 06:55:00,31.7,14.7,30.37,East,79,1.0,8.0,49,0.00,,,0.00,0,Wunderground v.1.15,2013-03-18 10:55:00,
2013-03-18 07:00:00,31.6,14.6,30.36,NE,47,1.0,2.0,49,0.00,,,0.00,0,Wunderground v.1.15,2013-03-18 11:00:00,
2013-03-18 07:05:00,31.9,14.9,30.37,NE,44,2.0,6.0,49,0.00,,,0.00,0,Wunderground v.1.15,2013-03-18 11:05:00,
2013-03-18 07:10:00,31.9,15.3,30.37,ENE,68,4.0,5.0,50,0.00,,,0.00,0,Wunderground v.1.15,2013-03-18 11:10:00,
2013-03-18 07:15:00,32.0,15.4,30.37,NE,51,4.0,6.0,50,0.00,,,0.00,0,Wunderground v.1.15,2013-03-18 11:15:00,
2013-03-18 07:20:00,32.2,15.6,30.37,NE,50,1.0,2.0,50,0.00,,,0.00,0,Wunderground v.1.15,2013-03-18 11:20:00,
2013-03-18 07:25:00,32.2,15.6,30.37,ENE,60,2.0,6.0,50,0.00,,,0.00,0,Wunderground v.1.15,2013-03-18 11:25:00,
2013-03-18 07:30:00,32.5,15.9,30.37,ENE,63,1.0,2.0,50,0.00,,,0.00,0,Wunderground v.1.15,2013-03-18 11:30:00,
2013-03-18 07:35:00,32.7,16.1,30.37,NE,39,7.0,8.0,50,0.00,,,0.00,0,Wunderground v.1.15,2013-03-18 11:35:00,
2013-03-18 07:40:00,32.9,16.3,30.37,NE,46,2.0,7.0,50,0.00,,,0.00,0,Wunderground v.1.15,2013-03-18 11:40:00,
2013-03-18 07:45:00,33.0,16.4,30.36,NE,42,2.0,7.0,50,0.00,,,0.00,0,Wunderground v.1.15,2013-03-18 11:45:00,
2013-03-18 07:50:00,33.1,16.5,30.36,ENE,66,2.0,6.0,50,0.00,,,0.00,0,Wunderground v.1.15,2013-03-18 11:50:00,
2013-03-18 07:55:00,33.2,16.5,30.36,NE,53,2.0,9.0,50,0.00,,,0.00,0,Wunderground v.1.15,2013-03-18 11:55:00,
2013-03-18 08:00:00,33.3,17.1,30.36,NE,34,1.0,2.0,51,0.00,,,0.00,0,Wunderground v.1.15,2013-03-18 12:00:00,
2013-03-18 08:06:00,33.4,16.7,30.36,NNE,29,4.0,12.0,50,0.00,,,0.00,0,Wunderground v.1.15,2013-03-18 12:06:00,
2013-03-18 08:11:00,33.4,16.7,30.36,ENE,73,5.0,8.0,50,0.00,,,0.00,0,Wunderground v.1.15,2013-03-18 12:11:00,
2013-03-18 08:16:00,33.6,16.9,30.36,East,89,0.0,8.0,50,0.00,,,0.00,0,Wunderground v.1.15,2013-03-18 12:16:00,
2013-03-18 08:21:00,33.7,17.5,30.36,NE,34,1.0,2.0,51,0.00,,,0.00,0,Wunderground v.1.15,2013-03-18 12:21:00,
2013-03-18 08:26:00,33.9,17.7,30.36,ENE,63,0.0,7.0,51,0.00,,,0.00,0,Wunderground v.1.15,2013-03-18 12:26:00,
2013-03-18 08:31:00,34.1,17.8,30.36,East,98,4.0,7.0,51,0.00,,,0.00,0,Wunderground v.1.15,2013-03-18 12:31:00,
2013-03-18 08:36:00,34.3,18.0,30.36,NE,43,1.0,8.0,51,0.00,,,0.00,0,Wunderground v.1.15,2013-03-18 12:36:00,
2013-03-18 08:41:00,34.5,18.7,30.36,East,93,2.0,7.0,52,0.00,,,0.00,0,Wunderground v.1.15,2013-03-18 12:41:00,
2013-03-18 08:46:00,34.7,18.9,30.36,NNE,25,1.0,7.0,52,0.00,,,0.00,0,Wunderground v.1.15,2013-03-18 12:46:00,
2013-03-18 08:51:00,35.0,19.1,30.36,ENE,58,3.0,6.0,52,0.00,,,0.00,0,Wunderground v.1.15,2013-03-18 12:51:00,
2013-03-18 08:57:00,35.2,19.3,30.36,NE,53,3.0,6.0,52,0.00,,,0.00,0,Wunderground v.1.15,2013-03-18 12:57:00,
2013-03-18 09:02:00,35.4,19.5,30.36,NE,37,0.0,2.0,52,0.00,,,0.00,0,Wunderground v.1.15,2013-03-18 13:02:00,
2013-03-18 09:07:00,35.5,19.1,30.36,NE,44,0.0,9.0,51,0.00,,,0.00,0,Wunderground v.1.15,2013-03-18 13:07:00,
2013-03-18 09:12:00,35.8,19.4,30.36,East,90,2.0,5.0,51,0.00,,,0.00,0,Wunderground v.1.15,2013-03-18 13:12:00,
2013-03-18 09:17:00,35.9,19.0,30.35,East,86,5.0,7.0,50,0.00,,,0.00,0,Wunderground v.1.15,2013-03-18 13:17:00,
2013-03-18 09:22:00,36.1,19.7,30.36,East,80,1.0,4.0,51,0.00,,,0.00,0,Wunderground v.1.15,2013-03-18 13:22:00,
2013-03-18 09:27:00,36.2,19.8,30.36,NE,41,2.0,6.0,51,0.00,,,0.00,0,Wunderground v.1.15,2013-03-18 13:27:00,
2013-03-18 09:32:00,36.2,19.8,30.36,NE,39,2.0,6.0,51,0.00,,,0.00,0,Wunderground v.1.15,2013-03-18 13:32:00,
2013-03-18 09:37:00,36.5,20.1,30.35,ESE,114,9.0,9.0,51,0.00,,,0.00,0,Wunderground v.1.15,2013-03-18 13:37:00,
2013-03-18 09:42:00,36.8,19.9,30.35,SSE,147,0.0,4.0,50,0.00,,,0.00,0,Wunderground v.1.15,2013-03-18 13:42:00,
2013-03-18 09:47:00,36.9,19.5,30.36,East,101,7.0,7.0,49,0.00,,,0.00,0,Wunderground v.1.15,2013-03-18 13:47:00,
2013-03-18 09:52:00,37.1,19.2,30.36,East,86,2.0,10.0,48,0.00,,,0.00,0,Wunderground v.1.15,2013-03-18 13:52:00,
2013-03-18 09:57:00,37.2,19.3,30.36,ENE,58,3.0,10.0,48,0.00,,,0.00,0,Wunderground v.1.15,2013-03-18 13:57:00,
2013-03-18 10:02:00,37.3,18.9,30.36,ENE,59,4.0,4.0,47,0.00,,,0.00,0,Wunderground v.1.15,2013-03-18 14:02:00,
2013-03-18 10:08:00,37.5,19.1,30.36,ESE,123,4.0,9.0,47,0.00,,,0.00,0,Wunderground v.1.15,2013-03-18 14:08:00,
2013-03-18 10:13:00,37.5,19.1,30.36,NE,54,4.0,9.0,47,0.00,,,0.00,0,Wunderground v.1.15,2013-03-18 14:13:00,
2013-03-18 10:18:00,37.6,19.7,30.36,SE,136,0.0,9.0,48,0.00,,,0.00,0,Wunderground v.1.15,2013-03-18 14:18:00,
2013-03-18 10:23:00,38.0,20.0,30.36,SE,128,7.0,7.0,48,0.00,,,0.00,0,Wunderground v.1.15,2013-03-18 14:23:00,
2013-03-18 10:28:00,38.2,20.7,30.36,SE,138,2.0,8.0,49,0.00,,,0.00,0,Wunderground v.1.15,2013-03-18 14:28:00,
2013-03-18 10:33:00,38.4,20.9,30.35,NE,52,3.0,9.0,49,0.00,,,0.00,0,Wunderground v.1.15,2013-03-18 14:33:00,
2013-03-18 10:38:00,38.6,20.6,30.35,East,86,1.0,9.0,48,0.00,,,0.00,0,Wunderground v.1.15,2013-03-18 14:38:00,
2013-03-18 10:43:00,38.9,21.8,30.34,ENE,58,1.0,8.0,50,0.00,,,0.00,0,Wunderground v.1.15,2013-03-18 14:43:00,
2013-03-18 10:48:00,39.2,22.6,30.34,ESE,122,1.0,8.0,51,0.00,,,0.00,0,Wunderground v.1.15,2013-03-18 14:48:00,
2013-03-18 10:54:00,39.5,23.3,30.34,NNE,13,2.0,6.0,52,0.00,,,0.00,0,Wunderground v.1.15,2013-03-18 14:54:00,
2013-03-18 10:59:00,39.5,23.3,30.34,NE,47,2.0,11.0,52,0.00,,,0.00,0,Wunderground v.1.15,2013-03-18 14:59:00,
2013-03-18 11:04:00,39.4,23.2,30.33,ESE,104,2.0,8.0,52,0.00,,,0.00,0,Wunderground v.1.15,2013-03-18 15:04:00,
2013-03-18 11:09:00,39.7,24.0,30.33,ENE,59,2.0,8.0,53,0.00,,,0.00,0,Wunderground v.1.15,2013-03-18 15:09:00,
2013-03-18 11:14:00,39.9,23.7,30.33,NE,40,1.0,10.0,52,0.00,,,0.00,0,Wunderground v.1.15,2013-03-18 15:14:00,
2013-03-18 11:19:00,39.9,23.2,30.33,ESE,123,10.0,10.0,51,0.00,,,0.00,0,Wunderground v.1.15,2013-03-18 15:19:00,
2013-03-18 11:24:00,40.1,23.4,30.33,ESE,106,7.0,8.0,51,0.00,,,0.00,0,Wunderground v.1.15,2013-03-18 15:24:00,
2013-03-18 11:29:00,40.0,23.3,30.33,ENE,73,5.0,11.0,51,0.00,,,0.00,0,Wunderground v.1.15,2013-03-18 15:29:00,
2013-03-18 11:34:00,40.2,23.5,30.32,SE,130,4.0,14.0,51,0.00,,,0.00,0,Wunderground v.1.15,2013-03-18 15:34:00,
2013-03-18 11:39:00,40.0,22.8,30.32,ESE,107,3.0,14.0,50,0.00,,,0.00,0,Wunderground v.1.15,2013-03-18 15:39:00,
2013-03-18 11:44:00,40.5,23.3,30.32,East,86,4.0,6.0,50,0.00,,,0.00,0,Wunderground v.1.15,2013-03-18 15:44:00,
2013-03-18 11:49:00,40.8,22.6,30.32,SE,146,3.0,6.0,48,0.00,,,0.00,0,Wunderground v.1.15,2013-03-18 15:49:00,
2013-03-18 11:54:00,40.5,21.8,30.32,ENE,70,2.0,5.0,47,0.00,,,0.00,0,Wunderground v.1.15,2013-03-18 15:54:00,
2013-03-18 11:59:00,40.7,23.0,30.32,NW,311,6.0,6.0,49,0.00,,,0.00,0,Wunderground v.1.15,2013-03-18 15:59:00,
2013-03-18 12:04:00,40.9,23.7,30.32,SE,140,0.0,9.0,50,0.00,,,0.00,0,Wunderground v.1.15,2013-03-18 16:04:00,
2013-03-18 12:09:00,41.0,23.8,30.32,ENE,59,2.0,9.0,50,0.00,,,0.00,0,Wunderground v.1.15,2013-03-18 16:09:00,
2013-03-18 12:14:00,41.1,24.3,30.32,SE,145,2.0,8.0,51,0.00,,,0.00,0,Wunderground v.1.15,2013-03-18 16:14:00,
2013-03-18 12:19:00,41.1,24.3,30.31,East,93,3.0,8.0,51,0.00,,,0.00,0,Wunderground v.1.15,2013-03-18 16:19:00,
2013-03-18 12:24:00,40.9,24.6,30.31,NE,54,2.0,9.0,52,0.00,,,0.00,0,Wunderground v.1.15,2013-03-18 16:24:00,
2013-03-18 12:29:00,40.6,24.8,30.31,South,179,2.0,11.0,53,0.00,,,0.00,0,Wunderground v.1.15,2013-03-18 16:29:00,
2013-03-18 12:34:00,40.4,25.1,30.30,ENE,78,4.0,7.0,54,0.00,,,0.00,0,Wunderground v.1.15,2013-03-18 16:34:00,
2013-03-18 12:39:00,40.2,24.9,30.30,NNE,25,2.0,7.0,54,0.00,,,0.00,0,Wunderground v.1.15,2013-03-18 16:39:00,
2013-03-18 12:44:00,40.1,24.8,30.30,NE,45,1.0,12.0,54,0.00,,,0.00,0,Wunderground v.1.15,2013-03-18 16:44:00,
2013-03-18 12:49:00,39.8,24.9,30.29,ESE,102,0.0,12.0,55,0.00,,,0.00,0,Wunderground v.1.15,2013-03-18 16:49:00,
2013-03-18 12:54:00,39.9,25.0,30.29,ESE,109,7.0,10.0,55,0.00,,,0.00,0,Wunderground v.1.15,2013-03-18 16:54:00,
2013-03-18 12:59:00,39.7,24.8,30.29,ESE,110,3.0,13.0,55,0.00,,,0.00,0,Wunderground v.1.15,2013-03-18 16:59:00,
2013-03-18 13:04:00,39.5,25.1,30.28,East,99,5.0,11.0,56,0.00,,,0.00,0,Wunderground v.1.15,2013-03-18 17:04:00,
2013-03-18 13:09:00,39.4,25.0,30.28,NNE,27,1.0,11.0,56,0.00,,,0.00,0,Wunderground v.1.15,2013-03-18 17:09:00,
2013-03-18 13:14:00,39.5,25.1,30.28,NE,34,1.0,5.0,56,0.00,,,0.00,0,Wunderground v.1.15,2013-03-18 17:14:00,
2013-03-18 13:19:00,39.4,25.4,30.27,East,88,3.0,12.0,57,0.00,,,0.00,0,Wunderground v.1.15,2013-03-18 17:19:00,
2013-03-18 13:24:00,39.6,25.6,30.28,SE,131,6.0,9.0,57,0.00,,,0.00,0,Wunderground v.1.15,2013-03-18 17:24:00,
2013-03-18 13:29:00,39.5,25.5,30.28,NE,54,1.0,9.0,57,0.00,,,0.00,0,Wunderground v.1.15,2013-03-18 17:29:00,
2013-03-18 13:34:00,39.2,25.6,30.28,NE,53,6.0,8.0,58,0.00,,,0.00,0,Wunderground v.1.15,2013-03-18 17:34:00,
2013-03-18 13:39:00,39.1,25.6,30.27,SE,141,0.0,12.0,58,0.00,,,0.00,0,Wunderground v.1.15,2013-03-18 17:39:00,
2013-03-18 13:44:00,38.8,25.3,30.27,NE,54,7.0,9.0,58,0.00,,,0.00,0,Wunderground v.1.15,2013-03-18 17:44:00,
2013-03-18 13:49:00,38.9,25.8,30.27,NE,40,1.0,9.0,59,0.00,,,0.00,0,Wunderground v.1.15,2013-03-18 17:49:00,
2013-03-18 13:54:00,38.7,25.6,30.27,ENE,75,4.0,11.0,59,0.00,,,0.00,0,Wunderground v.1.15,2013-03-18 17:54:00,
2013-03-18 13:59:00,38.5,25.4,30.26,NNE,33,2.0,11.0,59,0.00,,,0.00,0,Wunderground v.1.15,2013-03-18 17:59:00,
2013-03-18 14:04:00,38.2,25.1,30.26,ENE,78,4.0,12.0,59,0.00,,,0.00,0,Wunderground v.1.15,2013-03-18 18:04:00,
2013-03-18 14:09:00,38.1,25.4,30.26,SE,132,1.0,13.0,60,0.00,,,0.00,0,Wunderground v.1.15,2013-03-18 18:09:00,
2013-03-18 14:14:00,38.0,25.3,30.25,NE,55,4.0,7.0,60,0.00,,,0.00,0,Wunderground v.1.15,2013-03-18 18:14:00,
2013-03-18 14:19:00,37.9,25.2,30.25,ENE,62,4.0,7.0,60,0.00,,,0.00,0,Wunderground v.1.15,2013-03-18 18:19:00,
2013-03-18 14:24:00,37.7,25.1,30.25,NE,54,6.0,9.0,60,0.00,,,0.00,0,Wunderground v.1.15,2013-03-18 18:24:00,
2013-03-18 14:29:00,37.7,25.1,30.25,ESE,116,2.0,9.0,60,0.00,,,0.00,0,Wunderground v.1.15,2013-03-18 18:29:00,
2013-03-18 14:34:00,37.8,25.5,30.24,NE,47,1.0,7.0,61,0.00,,,0.00,0,Wunderground v.1.15,2013-03-18 18:34:00,
2013-03-18 14:39:00,37.7,25.5,30.24,North,359,0.0,10.0,61,0.00,,,0.00,0,Wunderground v.1.15,2013-03-18 18:39:00,
2013-03-18 14:44:00,37.7,25.5,30.24,NE,39,3.0,11.0,61,0.00,,,0.00,0,Wunderground v.1.15,2013-03-18 18:44:00,
2013-03-18 14:49:00,37.6,25.4,30.24,North,356,2.0,12.0,61,0.00,,,0.00,0,Wunderground v.1.15,2013-03-18 18:49:00,
2013-03-18 14:54:00,37.6,25.4,30.23,ENE,73,1.0,7.0,61,0.00,,,0.00,0,Wunderground v.1.15,2013-03-18 18:54:00,
2013-03-18 14:59:00,37.6,25.4,30.22,ESE,102,3.0,12.0,61,0.00,,,0.00,0,Wunderground v.1.15,2013-03-18 18:59:00,
2013-03-18 15:04:00,37.7,25.8,30.21,NE,52,2.0,7.0,62,0.00,,,0.00,0,Wunderground v.1.15,2013-03-18 19:04:00,
2013-03-18 15:09:00,37.6,25.7,30.21,ENE,73,4.0,7.0,62,0.00,,,0.00,0,Wunderground v.1.15,2013-03-18 19:09:00,
2013-03-18 15:14:00,37.8,25.9,30.21,NE,39,8.0,8.0,62,0.00,,,0.00,0,Wunderground v.1.15,2013-03-18 19:14:00,
2013-03-18 15:19:00,37.8,26.3,30.21,ESE,116,3.0,11.0,63,0.00,,,0.00,0,Wunderground v.1.15,2013-03-18 19:19:00,
2013-03-18 15:24:00,37.6,26.5,30.21,ENE,58,8.0,8.0,64,0.00,,,0.00,0,Wunderground v.1.15,2013-03-18 19:24:00,
2013-03-18 15:29:00,37.7,26.6,30.20,East,79,6.0,13.0,64,0.00,,,0.00,0,Wunderground v.1.15,2013-03-18 19:29:00,
2013-03-18 15:34:00,37.6,26.5,30.21,NE,43,2.0,11.0,64,0.00,,,0.00,0,Wunderground v.1.15,2013-03-18 19:34:00,
2013-03-18 15:39:00,37.8,27.1,30.21,ESE,110,2.0,11.0,65,0.00,,,0.00,0,Wunderground v.1.15,2013-03-18 19:39:00,
2013-03-18 15:44:00,37.6,26.9,30.20,SE,126,6.0,13.0,65,0.00,,,0.00,0,Wunderground v.1.15,2013-03-18 19:44:00,
2013-03-18 15:49:00,37.6,26.9,30.21,NE,38,3.0,13.0,65,0.00,,,0.00,0,Wunderground v.1.15,2013-03-18 19:49:00,
2013-03-18 15:54:00,37.6,26.9,30.20,ESE,120,2.0,8.0,65,0.00,,,0.00,0,Wunderground v.1.15,2013-03-18 19:54:00,
2013-03-18 15:59:00,37.7,27.0,30.19,North,2,2.0,8.0,65,0.00,,,0.00,0,Wunderground v.1.15,2013-03-18 19:59:00,
2013-03-18 16:04:00,37.6,26.9,30.19,ENE,57,2.0,14.0,65,0.00,,,0.00,0,Wunderground v.1.15,2013-03-18 20:04:00,
2013-03-18 16:09:00,37.5,26.8,30.19,East,87,3.0,14.0,65,0.00,,,0.00,0,Wunderground v.1.15,2013-03-18 20:09:00,
2013-03-18 16:14:00,37.6,26.9,30.19,ESE,118,4.0,9.0,65,0.00,,,0.00,0,Wunderground v.1.15,2013-03-18 20:14:00,
2013-03-18 16:19:00,37.6,27.3,30.18,ESE,111,7.0,12.0,66,0.00,,,0.00,0,Wunderground v.1.15,2013-03-18 20:19:00,
2013-03-18 16:24:00,37.6,27.3,30.18,NE,40,4.0,12.0,66,0.00,,,0.00,0,Wunderground v.1.15,2013-03-18 20:24:00,
2013-03-18 16:29:00,37.7,27.7,30.18,ENE,75,3.0,12.0,67,0.00,,,0.00,0,Wunderground v.1.15,2013-03-18 20:29:00,
2013-03-18 16:34:00,37.7,27.7,30.17,SE,136,6.0,7.0,67,0.00,,,0.00,0,Wunderground v.1.15,2013-03-18 20:34:00,
2013-03-18 16:40:00,37.7,27.7,30.17,East,100,1.0,1.0,67,0.00,,,0.00,0,Wunderground v.1.15,2013-03-18 20:40:00,
2013-03-18 16:45:00,37.7,27.7,30.17,ENE,62,1.0,7.0,67,0.00,,,0.00,0,Wunderground v.1.15,2013-03-18 20:45:00,
2013-03-18 16:49:00,37.6,28.0,30.17,NE,41,3.0,8.0,68,0.00,,,0.00,0,Wunderground v.1.15,2013-03-18 20:49:00,
2013-03-18 16:54:00,37.6,28.0,30.17,NE,41,1.0,11.0,68,0.00,,,0.00,0,Wunderground v.1.15,2013-03-18 20:54:00,
2013-03-18 17:00:00,37.2,28.0,30.17,NE,51,5.0,5.0,69,0.00,,,0.00,0,Wunderground v.1.15,2013-03-18 21:00:00,
2013-03-18 17:05:00,37.1,28.2,30.17,NE,54,3.0,7.0,70,0.00,,,0.00,0,Wunderground v.1.15,2013-03-18 21:05:00,
2013-03-18 17:10:00,37.1,28.6,30.16,NE,35,2.0,2.0,71,0.00,,,0.00,0,Wunderground v.1.15,2013-03-18 21:10:00,
2013-03-18 17:15:00,36.9,28.4,30.17,NNE,19,3.0,9.0,71,0.00,,,0.00,0,Wunderground v.1.15,2013-03-18 21:15:00,
2013-03-18 17:20:00,37.0,28.8,30.17,NE,43,2.0,6.0,72,0.00,,,0.00,0,Wunderground v.1.15,2013-03-18 21:20:00,
2013-03-18 17:25:00,36.7,28.5,30.16,ESE,107,3.0,7.0,72,0.00,,,0.00,0,Wunderground v.1.15,2013-03-18 21:25:00,
2013-03-18 17:30:00,36.7,28.5,30.16,East,83,7.0,8.0,72,0.00,,,0.00,0,Wunderground v.1.15,2013-03-18 21:30:00,
2013-03-18 17:35:00,36.7,28.9,30.15,East,91,2.0,8.0,73,0.00,,,0.00,0,Wunderground v.1.15,2013-03-18 21:35:00,
2013-03-18 17:40:00,36.7,28.9,30.15,ESE,108,4.0,7.0,73,0.00,,,0.00,0,Wunderground v.1.15,2013-03-18 21:40:00,
2013-03-18 17:45:00,36.8,29.0,30.15,ENE,71,5.0,14.0,73,0.00,,,0.00,0,Wunderground v.1.15,2013-03-18 21:45:00,
2013-03-18 17:50:00,36.7,28.9,30.15,ENE,66,4.0,6.0,73,0.00,,,0.00,0,Wunderground v.1.15,2013-03-18 21:50:00,
2013-03-18 17:56:00,36.8,29.0,30.14,SE,126,4.0,12.0,73,0.00,,,0.00,0,Wunderground v.1.15,2013-03-18 21:56:00,
2013-03-18 18:01:00,36.8,29.0,30.14,ESE,115,2.0,3.0,73,0.00,,,0.00,0,Wunderground v.1.15,2013-03-18 22:01:00,
2013-03-18 18:06:00,36.8,29.3,30.14,ENE,60,2.0,11.0,74,0.00,,,0.00,0,Wunderground v.1.15,2013-03-18 22:06:00,
2013-03-18 18:11:00,36.7,29.2,30.14,NE,54,1.0,5.0,74,0.00,,,0.00,0,Wunderground v.1.15,2013-03-18 22:11:00,
2013-03-18 18:16:00,36.7,29.2,30.15,East,87,3.0,7.0,74,0.00,,,0.00,0,Wunderground v.1.15,2013-03-18 22:16:00,
2013-03-18 18:21:00,36.6,29.4,30.14,SE,127,2.0,7.0,75,0.00,,,0.00,0,Wunderground v.1.15,2013-03-18 22:21:00,
2013-03-18 18:26:00,36.8,29.6,30.13,SE,130,5.0,11.0,75,0.00,,,0.00,0,Wunderground v.1.15,2013-03-18 22:26:00,
2013-03-18 18:31:00,36.9,29.7,30.12,ENE,59,6.0,6.0,75,0.00,,,0.00,0,Wunderground v.1.15,2013-03-18 22:31:00,
2013-03-18 18:37:00,36.9,30.0,30.11,ENE,65,8.0,12.0,76,0.00,,,0.00,0,Wunderground v.1.15,2013-03-18 22:37:00,
2013-03-18 18:42:00,37.0,30.1,30.10,ESE,114,4.0,5.0,76,0.00,,,0.00,0,Wunderground v.1.15,2013-03-18 22:42:00,
2013-03-18 18:47:00,36.7,29.8,30.10,ENE,75,5.0,8.0,76,0.00,,,0.00,0,Wunderground v.1.15,2013-03-18 22:47:00,
2013-03-18 18:52:00,36.9,30.0,30.10,NE,40,1.0,8.0,76,0.00,,,0.00,0,Wunderground v.1.15,2013-03-18 22:52:00,
2013-03-18 18:57:00,36.8,30.3,30.10,NE,50,5.0,10.0,77,0.00,,,0.00,0,Wunderground v.1.15,2013-03-18 22:57:00,
2013-03-18 19:02:00,36.8,30.6,30.10,ESE,113,4.0,12.0,78,0.00,,,0.00,0,Wunderground v.1.15,2013-03-18 23:02:00,
2013-03-18 19:07:00,36.9,30.7,30.10,ENE,57,2.0,12.0,78,0.00,,,0.00,0,Wunderground v.1.15,2013-03-18 23:07:00,
2013-03-18 19:12:00,36.9,30.7,30.09,North,10,2.0,9.0,78,0.00,,,0.00,0,Wunderground v.1.15,2013-03-18 23:12:00,
2013-03-18 19:17:00,36.9,30.7,30.09,East,93,9.0,9.0,78,0.00,,,0.00,0,Wunderground v.1.15,2013-03-18 23:17:00,
2013-03-18 19:22:00,36.9,30.7,30.09,NNE,32,2.0,6.0,78,0.00,,,0.00,0,Wunderground v.1.15,2013-03-18 23:22:00,
2013-03-18 19:27:00,37.0,30.8,30.08,NNE,26,3.0,7.0,78,0.00,,,0.00,0,Wunderground v.1.15,2013-03-18 23:27:00,
2013-03-18 19:32:00,37.0,30.8,30.08,ENE,64,2.0,10.0,78,0.00,,,0.00,0,Wunderground v.1.15,2013-03-18 23:32:00,
2013-03-18 19:37:00,37.1,31.2,30.07,NE,34,4.0,10.0,79,0.00,,,0.00,0,Wunderground v.1.15,2013-03-18 23:37:00,
2013-03-18 19:42:00,37.2,31.3,30.07,ENE,66,3.0,7.0,79,0.00,,,0.00,0,Wunderground v.1.15,2013-03-18 23:42:00,
2013-03-18 19:47:00,37.2,31.3,30.07,North,6,1.0,10.0,79,0.00,,,0.00,0,Wunderground v.1.15,2013-03-18 23:47:00,
2013-03-18 19:52:00,37.3,31.4,30.06,ENE,69,10.0,10.0,79,0.00,,,0.00,0,Wunderground v.1.15,2013-03-18 23:52:00,
2013-03-18 19:57:00,37.6,32.0,30.06,SSE,155,4.0,11.0,80,0.00,,,0.00,0,Wunderground v.1.15,2013-03-18 23:57:00,
2013-03-18 20:02:00,37.8,32.2,30.06,ENE,63,2.0,9.0,80,0.00,,,0.00,0,Wunderground v.1.15,2013-03-19 00:02:00,
2013-03-18 20:07:00,37.8,32.2,30.06,ENE,78,3.0,9.0,80,0.00,,,0.00,0,Wunderground v.1.15,2013-03-19 00:07:00,
2013-03-18 20:12:00,38.0,32.4,30.06,NNE,22,2.0,5.0,80,0.00,,,0.00,0,Wunderground v.1.15,2013-03-19 00:12:00,
2013-03-18 20:17:00,38.1,32.5,30.06,NE,47,1.0,7.0,80,0.00,,,0.00,0,Wunderground v.1.15,2013-03-19 00:17:00,
2013-03-18 20:22:00,38.5,33.2,30.06,NNE,26,2.0,7.0,81,0.00,,,0.00,0,Wunderground v.1.15,2013-03-19 00:22:00,
2013-03-18 20:27:00,38.5,33.2,30.06,ENE,67,2.0,10.0,81,0.00,,,0.00,0,Wunderground v.1.15,2013-03-19 00:27:00,
2013-03-18 20:32:00,38.6,33.3,30.06,NE,49,1.0,8.0,81,0.00,,,0.00,0,Wunderground v.1.15,2013-03-19 00:32:00,
2013-03-18 20:37:00,38.7,33.1,30.06,NNE,33,3.0,9.0,80,0.00,,,0.00,0,Wunderground v.1.15,2013-03-19 00:37:00,
2013-03-18 20:42:00,38.6,33.3,30.06,NNE,25,2.0,9.0,81,0.00,,,0.00,0,Wunderground v.1.15,2013-03-19 00:42:00,
2013-03-18 20:47:00,38.4,33.1,30.06,NE,34,0.0,9.0,81,0.00,,,0.00,0,Wunderground v.1.15,2013-03-19 00:47:00,
2013-03-18 20:52:00,38.4,33.1,30.05,NE,37,1.0,10.0,81,0.00,,,0.00,0,Wunderground v.1.15,2013-03-19 00:52:00,
2013-03-18 20:57:00,38.5,33.2,30.05,ENE,65,3.0,10.0,81,0.00,,,0.00,0,Wunderground v.1.15,2013-03-19 00:57:00,
2013-03-18 21:02:00,38.6,33.3,30.04,NE,45,8.0,8.0,81,0.00,,,0.00,0,Wunderground v.1.15,2013-03-19 01:02:00,
2013-03-18 21:07:00,38.5,33.2,30.03,NE,45,10.0,10.0,81,0.00,,,0.00,0,Wunderground v.1.15,2013-03-19 01:07:00,
2013-03-18 21:12:00,38.6,33.3,30.03,NE,43,3.0,9.0,81,0.00,,,0.00,0,Wunderground v.1.15,2013-03-19 01:12:00,
2013-03-18 21:18:00,38.6,33.3,30.03,NE,53,4.0,9.0,81,0.00,,,0.00,0,Wunderground v.1.15,2013-03-19 01:18:00,
2013-03-18 21:23:00,38.8,33.8,30.03,ENE,76,2.0,7.0,82,0.00,,,0.00,0,Wunderground v.1.15,2013-03-19 01:23:00,
2013-03-18 21:28:00,38.9,33.9,30.02,ENE,63,7.0,7.0,82,0.00,,,0.00,0,Wunderground v.1.15,2013-03-19 01:28:00,
2013-03-18 21:33:00,38.9,33.9,30.02,ESE,123,2.0,9.0,82,0.00,,,0.00,0,Wunderground v.1.15,2013-03-19 01:33:00,
2013-03-18 21:38:00,38.8,33.8,30.02,NE,51,1.0,9.0,82,0.00,,,0.00,0,Wunderground v.1.15,2013-03-19 01:38:00,
2013-03-18 21:43:00,38.9,33.9,30.01,ESE,109,2.0,11.0,82,0.00,,,0.00,0,Wunderground v.1.15,2013-03-19 01:43:00,
2013-03-18 21:48:00,38.8,33.8,30.01,ENE,74,4.0,11.0,82,0.00,,,0.00,0,Wunderground v.1.15,2013-03-19 01:48:00,
2013-03-18 21:53:00,38.8,33.8,30.01,NNE,14,2.0,7.0,82,0.00,,,0.00,0,Wunderground v.1.15,2013-03-19 01:53:00,
2013-03-18 21:58:00,39.1,34.1,30.00,NNE,22,2.0,7.0,82,0.00,,,0.00,0,Wunderground v.1.15,2013-03-19 01:58:00,
2013-03-18 22:03:00,39.0,34.0,30.00,NNE,16,2.0,6.0,82,0.00,,,0.00,0,Wunderground v.1.15,2013-03-19 02:03:00,
2013-03-18 22:08:00,39.3,34.3,30.00,NE,46,1.0,6.0,82,0.00,,,0.00,0,Wunderground v.1.15,2013-03-19 02:08:00,
2013-03-18 22:13:00,39.3,34.3,30.00,NE,55,4.0,7.0,82,0.00,,,0.00,0,Wunderground v.1.15,2013-03-19 02:13:00,
2013-03-18 22:18:00,39.3,34.3,30.00,NE,42,8.0,9.0,82,0.00,,,0.00,0,Wunderground v.1.15,2013-03-19 02:18:00,
2013-03-18 22:24:00,39.5,34.5,29.99,NE,39,4.0,6.0,82,0.00,,,0.00,0,Wunderground v.1.15,2013-03-19 02:24:00,
2013-03-18 22:29:00,39.5,34.5,29.98,ENE,73,2.0,11.0,82,0.00,,,0.00,0,Wunderground v.1.15,2013-03-19 02:29:00,
2013-03-18 22:34:00,39.5,34.5,29.99,ENE,74,0.0,9.0,82,0.00,,,0.00,0,Wunderground v.1.15,2013-03-19 02:34:00,
2013-03-18 22:39:00,39.6,34.6,29.98,NE,35,1.0,10.0,82,0.00,,,0.00,0,Wunderground v.1.15,2013-03-19 02:39:00,
2013-03-18 22:44:00,39.6,34.6,29.98,ENE,59,6.0,8.0,82,0.00,,,0.00,0,Wunderground v.1.15,2013-03-19 02:44:00,
2013-03-18 22:49:00,39.6,34.6,29.98,NNE,26,4.0,10.0,82,0.00,,,0.00,0,Wunderground v.1.15,2013-03-19 02:49:00,
2013-03-18 22:54:00,39.7,35.0,29.97,NNE,24,3.0,8.0,83,0.00,,,0.00,0,Wunderground v.1.15,2013-03-19 02:54:00,
2013-03-18 22:59:00,39.9,35.2,29.97,North,7,9.0,10.0,83,0.00,,,0.00,0,Wunderground v.1.15,2013-03-19 02:59:00,
2013-03-18 23:04:00,39.7,35.0,29.97,NE,36,2.0,13.0,83,0.00,,,0.00,0,Wunderground v.1.15,2013-03-19 03:04:00,
2013-03-18 23:09:00,39.9,35.2,29.97,NE,37,4.0,13.0,83,0.00,,,0.00,0,Wunderground v.1.15,2013-03-19 03:09:00,
2013-03-18 23:14:00,39.9,35.2,29.96,NE,52,3.0,9.0,83,0.00,,,0.00,0,Wunderground v.1.15,2013-03-19 03:14:00,
2013-03-18 23:19:00,40.1,35.4,29.96,NE,48,5.0,13.0,83,0.00,,,0.00,0,Wunderground v.1.15,2013-03-19 03:19:00,
2013-03-18 23:24:00,40.1,35.4,29.97,NE,44,3.0,10.0,83,0.00,,,0.00,0,Wunderground v.1.15,2013-03-19 03:24:00,
2013-03-18 23:29:00,40.3,35.5,29.96,NE,53,4.0,11.0,83,0.00,,,0.00,0,Wunderground v.1.15,2013-03-19 03:29:00,
2013-03-18 23:34:00,40.1,35.4,29.95,ENE,59,5.0,9.0,83,0.00,,,0.00,0,Wunderground v.1.15,2013-03-19 03:34:00,
2013-03-18 23:39:00,40.5,35.7,29.94,NNE,21,4.0,9.0,83,0.00,,,0.00,0,Wunderground v.1.15,2013-03-19 03:39:00,
2013-03-18 23:44:00,40.3,35.5,29.94,NNE,25,5.0,8.0,83,0.00,,,0.00,0,Wunderground v.1.15,2013-03-19 03:44:00,
2013-03-18 23:49:00,40.5,35.7,29.93,NNE,28,4.0,12.0,83,0.00,,,0.00,0,Wunderground v.1.15,2013-03-19 03:49:00,
2013-03-18 23:54:00,40.7,36.2,29.92,NE,36,5.0,13.0,84,0.00,,,0.00,0,Wunderground v.1.15,2013-03-19 03:54:00,
2013-03-18 23:59:00,40.8,36.3,29.91,NNE,28,1.0,13.0,84,0.00,,,0.00,0,Wunderground v.1.15,2013-03-19 03:59:00,